QPF
0.03 0.02 0.02 0.02 0.03 0.04 0.04 0.03 0.03 0.02 0.01 0.01 0.01 0.01 0.00 0.00 0.00 0.01 0.01 0.01 0.01 0.01 0.01 0.01 0.01 0.01 0.02 0.02 0.02 0.02 0.03 0.03 0.03 0.03 0.04 0.04 0.06 0.07
0.03 0.02 0.02 0.02 0.02 0.03 0.03 0.03 0.02 0.02 0.02 0.01 0.01 0.01 0.01 0.00 0.01 0.01 0.01 0.01 0.01 0.02 0.02 0.02 0.02 0.02 0.02 0.03 0.03 0.02 0.02 0.03 0.03 0.03 0.04 0.04 0.04 0.05
0.02 0.02 0.02 0.01 0.02 0.02 0.02 0.02 0.02 0.02 0.02 0.01 0.01 0.01 0.01 0.01 0.01 0.01 0.01 0.01 0.01 0.03 0.04 0.03 0.03 0.02 0.02 0.03 0.04 0.03 0.02 0.03 0.04 0.04 0.04 0.04 0.04 0.04
0.01 0.01 0.01 0.01 0.01 0.01 0.02 0.02 0.02 0.01 0.02 0.01 0.01 0.01 0.01 0.01 0.01 0.01 0.01 0.01 0.01 0.02 0.03 0.03 0.02 0.02 0.03 0.04 0.04 0.04 0.03 0.04 0.04 0.04 0.03 0.03 0.03 0.04
0.01 0.01 0.01 0.01 0.01 0.01 0.02 0.02 0.02 0.01 0.01 0.01 0.01 0.01 0.02 0.02 0.02 0.02 0.02 0.02 0.02 0.02 0.02 0.02 0.02 0.03 0.04 0.04 0.04 0.05 0.04 0.04 0.03 0.03 0.03 0.02 0.02 0.04
0.02 0.02 0.02 0.01 0.01 0.01 0.02 0.02 0.02 0.02 0.01 0.01 0.01 0.02 0.02 0.03 0.03 0.02 0.02 0.03 0.03 0.02 0.02 0.02 0.02 0.03 0.03 0.04 0.05 0.05 0.05 0.04 0.03 0.03 0.03 0.03 0.03 0.03
0.02 0.02 0.02 0.02 0.02 0.02 0.02 0.02 0.02 0.02 0.02 0.01 0.01 0.02 0.03 0.03 0.03 0.02 0.03 0.03 0.03 0.02 0.01 0.01 0.02 0.02 0.03 0.04 0.04 0.04 0.04 0.04 0.03 0.03 0.03 0.04 0.03 0.03
0.02 0.02 0.02 0.02 0.02 0.02 0.02 0.02 0.02 0.02 0.02 0.02 0.02 0.03 0.03 0.03 0.03 0.03 0.03 0.04 0.04 0.02 0.01 0.01 0.02 0.02 0.02 0.03 0.04 0.04 0.04 0.04 0.03 0.03 0.04 0.04 0.03 0.03
0.01 0.01 0.01 0.01 0.02 0.02 0.02 0.02 0.02 0.02 0.02 0.02 0.03 0.04 0.04 0.03 0.03 0.03 0.03 0.03 0.03 0.03 0.02 0.02 0.02 0.02 0.02 0.02 0.03 0.04 0.03 0.03 0.03 0.04 0.04 0.04 0.03 0.03
0.01 0.01 0.01 0.01 0.01 0.02 0.02 0.02 0.02 0.01 0.01 0.02 0.04 0.05 0.04 0.04 0.04 0.03 0.03 0.02 0.02 0.02 0.02 0.02 0.03 0.03 0.02 0.02 0.03 0.03 0.03 0.03 0.03 0.03 0.03 0.03 0.03 0.03
0.01 0.02 0.01 0.01 0.01 0.02 0.02 0.02 0.02 0.02 0.02 0.03 0.05 0.05 0.05 0.05 0.04 0.03 0.02 0.03 0.03 0.03 0.02 0.02 0.03 0.03 0.03 0.03 0.02 0.03 0.03 0.03 0.03 0.02 0.02 0.02 0.02 0.02
0.01 0.01 0.02 0.02 0.02 0.02 0.02 0.02 0.02 0.02 0.02 0.03 0.04 0.04 0.04 0.03 0.03 0.02 0.02 0.03 0.02 0.03 0.03 0.02 0.02 0.03 0.03 0.03 0.02 0.03 0.03 0.03 0.02 0.02 0.02 0.02 0.02 0.01
0.02 0.01 0.02 0.02 0.02 0.02 0.02 0.02 0.03 0.02 0.02 0.03 0.03 0.02 0.02 0.02 0.02 0.01 0.01 0.03 0.03 0.03 0.02 0.03 0.03 0.03 0.03 0.03 0.03 0.03 0.03 0.03 0.02 0.01 0.02 0.02 0.02 0.02
0.02 0.02 0.01 0.02 0.02 0.02 0.02 0.03 0.03 0.03 0.02 0.02 0.03 0.03 0.02 0.02 0.01 0.01 0.01 0.02 0.03 0.03 0.02 0.03 0.03 0.03 0.04 0.03 0.03 0.03 0.03 0.02 0.02 0.01 0.02 0.02 0.03 0.03
0.02 0.02 0.02 0.02 0.02 0.02 0.02 0.03 0.03 0.03 0.03 0.03 0.03 0.02 0.02 0.02 0.01 0.01 0.01 0.02 0.02 0.02 0.02 0.03 0.03 0.03 0.04 0.04 0.04 0.03 0.03 0.02 0.02 0.02 0.02 0.02 0.02 0.04
0.03 0.04 0.03 0.03 0.03 0.03 0.03 0.03 0.03 0.03 0.03 0.03 0.02 0.02 0.02 0.02 0.02 0.02 0.01 0.02 0.03 0.03 0.02 0.03 0.03 0.03 0.03 0.03 0.03 0.03 0.02 0.03 0.03 0.03 0.03 0.02 0.01 0.02
0.03 0.04 0.04 0.04 0.04 0.04 0.03 0.03 0.03 0.03 0.04 0.03 0.02 0.02 0.02 0.02 0.02 0.03 0.02 0.02 0.03 0.04 0.04 0.03 0.03 0.03 0.03 0.03 0.03 0.02 0.02 0.02 0.03 0.03 0.03 0.03 0.02 0.02
0.04 0.05 0.05 0.05 0.05 0.04 0.04 0.04 0.03 0.03 0.04 0.03 0.03 0.02 0.02 0.03 0.03 0.02 0.02 0.03 0.03 0.03 0.04 0.04 0.03 0.03 0.03 0.03 0.04 0.04 0.03 0.03 0.03 0.03 0.03 0.04 0.03 0.03
0.05 0.06 0.06 0.06 0.06 0.05 0.05 0.04 0.04 0.03 0.03 0.03 0.03 0.03 0.03 0.03 0.03 0.02 0.02 0.02 0.03 0.04 0.03 0.03 0.03 0.04 0.04 0.03 0.03 0.03 0.03 0.03 0.03 0.03 0.03 0.04 0.04 0.04
0.05 0.05 0.05 0.05 0.06 0.06 0.05 0.05 0.04 0.04 0.03 0.04 0.04 0.03 0.03 0.03 0.03 0.03 0.03 0.03 0.03 0.04 0.03 0.02 0.03 0.04 0.05 0.04 0.04 0.03 0.03 0.03 0.04 0.04 0.04 0.04 0.05 0.05
0.03 0.04 0.04 0.04 0.04 0.05 0.05 0.05 0.05 0.04 0.04 0.04 0.03 0.03 0.03 0.03 0.03 0.03 0.03 0.03 0.04 0.04 0.03 0.03 0.03 0.04 0.04 0.04 0.04 0.04 0.03 0.03 0.03 0.04 0.04 0.04 0.03 0.04
0.03 0.03 0.03 0.03 0.03 0.04 0.03 0.03 0.03 0.03 0.03 0.03 0.03 0.02 0.02 0.02 0.02 0.03 0.03 0.03 0.04 0.04 0.03 0.03 0.03 0.04 0.04 0.04 0.04 0.03 0.03 0.03 0.03 0.03 0.04 0.05 0.04 0.04
0.02 0.02 0.02 0.03 0.03 0.03 0.03 0.02 0.02 0.02 0.02 0.02 0.02 0.02 0.02 0.02 0.02 0.02 0.03 0.03 0.03 0.03 0.03 0.03 0.03 0.03 0.03 0.03 0.03 0.03 0.03 0.02 0.02 0.02 0.03 0.03 0.03 0.03
MSLP
1017.04 1016.93 1016.66 1016.29 1015.85 1015.43 1015.11 1014.96 1015.02 1015.33 1015.87 1016.60 1017.49 1018.45 1019.42 1020.36 1021.23 1021.99 1022.66 1023.22 1023.70 1024.08 1024.38 1024.59 1024.73 1024.77 1024.73 1024.61 1024.42 1024.17 1023.88 1023.55 1023.18 1022.79 1022.37 1021.90 1021.38 1020.81
1016.53 1016.50 1016.34 1016.05 1015.70 1015.35 1015.08 1014.96 1015.04 1015.36 1015.90 1016.65 1017.54 1018.53 1019.54 1020.51 1021.42 1022.24 1022.95 1023.56 1024.06 1024.46 1024.78 1025.00 1025.13 1025.18 1025.13 1025.00 1024.81 1024.55 1024.26 1023.93 1023.58 1023.20 1022.79 1022.35 1021.87 1021.33
1015.83 1015.89 1015.82 1015.64 1015.39 1015.13 1014.94 1014.88 1015.01 1015.36 1015.92 1016.68 1017.59 1018.59 1019.62 1020.64 1021.59 1022.45 1023.20 1023.85 1024.38 1024.82 1025.15 1025.39 1025.53 1025.58 1025.53 1025.40 1025.20 1024.95 1024.65 1024.33 1023.98 1023.62 1023.24 1022.83 1022.38 1021.87
1015.05 1015.19 1015.22 1015.14 1015.00 1014.84 1014.73 1014.74 1014.92 1015.30 1015.88 1016.66 1017.58 1018.59 1019.65 1020.69 1021.67 1022.57 1023.37 1024.06 1024.64 1025.11 1025.48 1025.75 1025.91 1025.97 1025.94 1025.81 1025.61 1025.36 1025.06 1024.74 1024.40 1024.05 1023.69 1023.30 1022.88 1022.40
1014.27 1014.49 1014.60 1014.62 1014.57 1014.50 1014.47 1014.54 1014.77 1015.17 1015.77 1016.54 1017.47 1018.49 1019.56 1020.62 1021.63 1022.57 1023.42 1024.16 1024.79 1025.32 1025.74 1026.05 1026.25 1026.34 1026.33 1026.22 1026.03 1025.78 1025.48 1025.16 1024.82 1024.47 1024.12 1023.75 1023.35 1022.91
1013.58 1013.85 1014.04 1014.13 1014.16 1014.15 1014.18 1014.29 1014.54 1014.95 1015.55 1016.31 1017.23 1018.25 1019.32 1020.40 1021.44 1022.42 1023.32 1024.12 1024.82 1025.41 1025.90 1026.27 1026.52 1026.66 1026.69 1026.61 1026.44 1026.19 1025.90 1025.57 1025.22 1024.87 1024.52 1024.17 1023.79 1023.37
1012.99 1013.31 1013.55 1013.69 1013.76 1013.80 1013.85 1013.98 1014.22 1014.63 1015.21 1015.96 1016.86 1017.86 1018.93 1020.02 1021.09 1022.11 1023.06 1023.93 1024.70 1025.36 1025.92 1026.37 1026.70 1026.90 1026.98 1026.94 1026.80 1026.57 1026.28 1025.95 1025.60 1025.24 1024.89 1024.54 1024.17 1023.78
1012.50 1012.86 1013.12 1013.29 1013.38 1013.43 1013.49 1013.61 1013.84 1014.22 1014.78 1015.50 1016.37 1017.36 1018.42 1019.52 1020.62 1021.67 1022.66 1023.59 1024.42 1025.17 1025.80 1026.33 1026.74 1027.02 1027.16 1027.18 1027.08 1026.88 1026.61 1026.29 1025.94 1025.58 1025.22 1024.87 1024.52 1024.14
1012.06 1012.44 1012.72 1012.90 1013.00 1013.04 1013.09 1013.19 1013.40 1013.76 1014.28 1014.98 1015.83 1016.81 1017.86 1018.96 1020.06 1021.14 1022.17 1023.14 1024.02 1024.83 1025.54 1026.14 1026.63 1026.99 1027.21 1027.30 1027.26 1027.11 1026.87 1026.57 1026.24 1025.89 1025.53 1025.19 1024.84 1024.48
1011.61 1012.01 1012.30 1012.48 1012.58 1012.61 1012.65 1012.74 1012.94 1013.28 1013.80 1014.48 1015.32 1016.28 1017.33 1018.42 1019.52 1020.60 1021.64 1022.63 1023.55 1024.39 1025.15 1025.82 1026.37 1026.81 1027.12 1027.29 1027.32 1027.24 1027.06 1026.80 1026.50 1026.17 1025.83 1025.50 1025.16 1024.82
1011.08 1011.50 1011.81 1012.00 1012.10 1012.14 1012.18 1012.29 1012.50 1012.85 1013.37 1014.06 1014.91 1015.87 1016.91 1017.99 1019.08 1020.14 1021.16 1022.14 1023.05 1023.91 1024.69 1025.39 1026.01 1026.51 1026.90 1027.15 1027.28 1027.28 1027.17 1026.98 1026.73 1026.45 1026.14 1025.82 1025.50 1025.17
1010.46 1010.91 1011.23 1011.44 1011.56 1011.63 1011.70 1011.84 1012.10 1012.49 1013.06 1013.78 1014.65 1015.62 1016.66 1017.73 1018.78 1019.81 1020.80 1021.73 1022.61 1023.44 1024.22 1024.93 1025.58 1026.14 1026.59 1026.93 1027.15 1027.24 1027.23 1027.12 1026.94 1026.71 1026.45 1026.16 1025.87 1025.56
1009.75 1010.22 1010.56 1010.80 1010.95 1011.07 1011.21 1011.42 1011.75 1012.22 1012.86 1013.64 1014.56 1015.56 1016.60 1017.65 1018.67 1019.65 1020.57 1021.44 1022.27 1023.05 1023.79 1024.49 1025.15 1025.74 1026.25 1026.67 1026.97 1027.16 1027.24 1027.22 1027.13 1026.96 1026.76 1026.52 1026.25 1025.97
1008.98 1009.45 1009.82 1010.09 1010.29 1010.48 1010.70 1011.01 1011.44 1012.02 1012.75 1013.62 1014.59 1015.63 1016.69 1017.73 1018.72 1019.64 1020.50 1021.30 1022.05 1022.76 1023.46 1024.13 1024.78 1025.39 1025.94 1026.41 1026.79 1027.06 1027.23 1027.30 1027.29 1027.20 1027.05 1026.86 1026.64 1026.39
1008.19 1008.66 1009.04 1009.34 1009.59 1009.86 1010.17 1010.59 1011.14 1011.84 1012.68 1013.64 1014.69 1015.78 1016.86 1017.89 1018.86 1019.74 1020.54 1021.27 1021.95 1022.60 1023.25 1023.89 1024.51 1025.12 1025.70 1026.21 1026.64 1026.98 1027.22 1027.37 1027.42 1027.40 1027.32 1027.19 1027.01 1026.79
1007.43 1007.88 1008.26 1008.58 1008.88 1009.21 1009.62 1010.15 1010.81 1011.63 1012.58 1013.64 1014.76 1015.90 1017.01 1018.06 1019.01 1019.86 1020.62 1021.31 1021.94 1022.55 1023.16 1023.76 1024.37 1024.98 1025.56 1026.09 1026.55 1026.94 1027.23 1027.43 1027.54 1027.57 1027.54 1027.46 1027.33 1027.16
1006.74 1007.15 1007.51 1007.83 1008.17 1008.56 1009.05 1009.67 1010.43 1011.35 1012.39 1013.53 1014.73 1015.92 1017.06 1018.13 1019.09 1019.94 1020.69 1021.37 1021.98 1022.58 1023.16 1023.76 1024.36 1024.96 1025.53 1026.07 1026.55 1026.95 1027.26 1027.49 1027.64 1027.71 1027.72 1027.68 1027.60 1027.48
1006.12 1006.48 1006.82 1007.14 1007.49 1007.92 1008.47 1009.15 1009.99 1010.98 1012.09 1013.29 1014.54 1015.77 1016.95 1018.04 1019.03 1019.90 1020.68 1021.38 1022.02 1022.63 1023.23 1023.83 1024.44 1025.04 1025.62 1026.16 1026.63 1027.03 1027.35 1027.58 1027.74 1027.83 1027.86 1027.86 1027.82 1027.75
1005.56 1005.89 1006.19 1006.50 1006.87 1007.32 1007.90 1008.63 1009.51 1010.55 1011.70 1012.93 1014.20 1015.46 1016.67 1017.79 1018.82 1019.73 1020.56 1021.30 1021.99 1022.66 1023.30 1023.94 1024.58 1025.19 1025.78 1026.31 1026.78 1027.17 1027.47 1027.70 1027.85 1027.95 1028.00 1028.01 1028.01 1027.97
1005.06 1005.35 1005.64 1005.95 1006.32 1006.79 1007.39 1008.14 1009.05 1010.10 1011.26 1012.50 1013.77 1015.04 1016.26 1017.41 1018.47 1019.43 1020.32 1021.13 1021.90 1022.63 1023.34 1024.04 1024.72 1025.37 1025.97 1026.51 1026.97 1027.35 1027.64 1027.86 1028.00 1028.09 1028.14 1028.17 1028.18 1028.18
1004.57 1004.86 1005.16 1005.48 1005.86 1006.36 1006.98 1007.74 1008.65 1009.70 1010.85 1012.07 1013.33 1014.58 1015.80 1016.96 1018.04 1019.05 1019.99 1020.87 1021.72 1022.53 1023.32 1024.09 1024.82 1025.51 1026.15 1026.70 1027.18 1027.55 1027.84 1028.05 1028.19 1028.28 1028.33 1028.37 1028.39 1028.39
1004.08 1004.41 1004.74 1005.10 1005.52 1006.05 1006.69 1007.47 1008.38 1009.41 1010.54 1011.73 1012.95 1014.17 1015.37 1016.51 1017.61 1018.64 1019.62 1020.56 1021.47 1022.35 1023.21 1024.05 1024.84 1025.59 1026.26 1026.86 1027.35 1027.75 1028.05 1028.27 1028.42 1028.52 1028.58 1028.62 1028.64 1028.65
1003.60 1004.00 1004.39 1004.81 1005.30 1005.87 1006.56 1007.36 1008.27 1009.29 1010.38 1011.54 1012.71 1013.89 1015.04 1016.15 1017.23 1018.26 1019.26 1020.23 1021.18 1022.11 1023.02 1023.92 1024.77 1025.56 1026.29 1026.93 1027.47 1027.91 1028.25 1028.50 1028.68 1028.80 1028.88 1028.93 1028.95 1028.95
Thickness
5489 5488 5487 5486 5484 5484 5484 5485 5486 5491 5496 5494 5491 5490 5489 5488 5487 5487 5488 5487 5488 5490 5492 5494 5497 5499 5501 5502 5504 5506 5510 5514 5518 5522 5525 5527 5529 5531
5481 5480 5479 5477 5476 5475 5474 5475 5475 5477 5482 5485 5482 5481 5480 5479 5478 5478 5479 5479 5479 5481 5484 5486 5488 5490 5492 5494 5495 5497 5501 5505 5509 5512 5515 5518 5520 5522
5473 5472 5470 5469 5467 5466 5465 5466 5466 5467 5470 5473 5472 5471 5470 5470 5470 5469 5470 5471 5472 5473 5476 5478 5480 5482 5483 5485 5487 5489 5493 5496 5500 5504 5506 5508 5510 5513
5464 5463 5462 5460 5459 5458 5457 5458 5458 5458 5459 5462 5462 5461 5461 5460 5461 5461 5461 5463 5464 5466 5468 5471 5473 5474 5476 5477 5479 5481 5485 5488 5492 5494 5497 5499 5502 5503
5457 5455 5454 5452 5451 5450 5450 5450 5450 5450 5450 5452 5454 5453 5453 5452 5452 5453 5453 5455 5457 5460 5462 5465 5466 5467 5468 5470 5471 5474 5477 5480 5483 5486 5488 5490 5493 5494
5449 5448 5446 5445 5444 5443 5443 5443 5442 5442 5442 5443 5445 5445 5445 5444 5444 5445 5447 5448 5450 5453 5455 5457 5459 5460 5462 5463 5465 5467 5469 5471 5474 5478 5480 5482 5484 5485
5441 5440 5439 5437 5436 5436 5436 5436 5435 5435 5435 5436 5437 5438 5438 5436 5437 5437 5438 5441 5443 5445 5447 5450 5451 5454 5455 5456 5458 5459 5461 5462 5465 5468 5471 5473 5475 5476
5435 5434 5433 5431 5429 5429 5428 5428 5427 5428 5429 5429 5431 5432 5432 5430 5430 5429 5430 5432 5436 5438 5439 5442 5444 5447 5448 5449 5450 5451 5453 5454 5456 5458 5461 5463 5466 5468
5428 5427 5426 5425 5423 5423 5422 5421 5421 5421 5422 5423 5424 5425 5425 5424 5423 5423 5423 5424 5427 5429 5430 5435 5438 5440 5441 5441 5442 5443 5444 5445 5447 5449 5451 5454 5456 5458
5420 5420 5420 5419 5417 5417 5417 5416 5416 5416 5416 5416 5418 5419 5418 5417 5416 5416 5415 5416 5419 5421 5422 5426 5430 5432 5433 5433 5434 5435 5436 5437 5439 5441 5443 5445 5447 5448
5413 5413 5413 5413 5412 5410 5410 5411 5412 5412 5410 5409 5410 5410 5409 5409 5409 5408 5409 5410 5413 5415 5415 5417 5421 5422 5424 5426 5427 5427 5429 5430 5431 5433 5435 5436 5438 5440
5405 5406 5405 5406 5406 5405 5405 5405 5406 5406 5405 5405 5404 5403 5403 5403 5403 5403 5404 5404 5406 5408 5409 5408 5410 5411 5415 5419 5420 5420 5421 5423 5424 5425 5427 5428 5429 5431
5399 5399 5399 5399 5399 5399 5399 5400 5400 5399 5398 5398 5398 5398 5399 5398 5398 5397 5398 5399 5400 5402 5401 5399 5401 5402 5404 5408 5412 5413 5414 5416 5417 5419 5420 5421 5422 5423
5392 5393 5393 5392 5392 5393 5393 5394 5393 5392 5392 5392 5392 5393 5393 5392 5392 5392 5392 5392 5394 5395 5394 5393 5393 5395 5396 5400 5403 5406 5406 5407 5409 5411 5413 5414 5415 5416
5385 5386 5386 5386 5386 5387 5387 5386 5386 5386 5387 5387 5387 5387 5386 5386 5386 5386 5387 5387 5388 5389 5388 5388 5388 5389 5390 5393 5396 5398 5399 5400 5402 5404 5406 5407 5408 5409
5378 5378 5379 5379 5379 5379 5380 5380 5380 5381 5381 5381 5381 5380 5379 5379 5380 5381 5382 5382 5383 5384 5383 5383 5383 5384 5386 5387 5389 5391 5392 5393 5395 5397 5398 5400 5401 5402
5372 5372 5372 5372 5373 5373 5373 5373 5373 5373 5374 5374 5373 5373 5373 5373 5374 5374 5374 5376 5377 5378 5379 5379 5379 5379 5380 5381 5383 5385 5386 5387 5388 5390 5391 5394 5395 5396
5366 5367 5367 5367 5367 5367 5367 5367 5367 5367 5367 5366 5367 5367 5367 5367 5367 5367 5367 5369 5371 5372 5373 5373 5373 5374 5376 5377 5377 5379 5381 5382 5382 5383 5384 5386 5389 5390
5362 5362 5362 5362 5361 5360 5360 5360 5361 5360 5360 5360 5360 5360 5360 5360 5361 5361 5361 5363 5365 5366 5367 5367 5368 5369 5372 5376 5375 5372 5374 5376 5377 5378 5379 5380 5383 5385
5357 5357 5357 5357 5356 5355 5354 5354 5354 5354 5355 5355 5354 5354 5354 5354 5355 5355 5356 5357 5359 5360 5362 5363 5364 5364 5366 5368 5368 5368 5367 5368 5370 5372 5374 5375 5377 5378
5353 5353 5353 5352 5351 5350 5350 5349 5349 5349 5349 5348 5349 5349 5349 5349 5350 5350 5351 5351 5353 5355 5357 5358 5359 5359 5359 5360 5362 5364 5363 5362 5363 5366 5369 5371 5373 5375
5350 5349 5349 5348 5347 5346 5345 5344 5344 5343 5343 5343 5344 5344 5344 5345 5345 5345 5346 5347 5349 5350 5351 5353 5353 5355 5355 5357 5358 5359 5360 5360 5360 5361 5364 5366 5368 5370
5346 5346 5345 5344 5343 5342 5341 5340 5340 5339 5339 5339 5340 5340 5340 5340 5341 5341 5342 5343 5344 5345 5346 5347 5349 5350 5351 5352 5353 5354 5355 5356 5358 5359 5361 5362 5363 5364